EW2533 Weather Reports


time (UTC)temp
C
wind
direction
speed
KPH
gust
KPH
rain 1hr
cm
rain 24hr
cm
rain mn
cm
humidity
%
barometer
mb
20260502183037 20 293 3.2 9.7 0.00 0.00 0.00 20 1023.3
20260502182517 19 270 9.7 16.1 0.00 0.00 0.00 20 1023.4
20260502182017 19 315 11.3 19.3 0.00 0.00 0.00 20 1023.5
20260502181517 19 338 9.7 14.5 0.00 0.00 0.00 21 1023.5
20260502181017 19 338 12.9 19.3 0.00 0.00 0.00 21 1023.3
20260502180517 18 315 9.7 17.7 0.00 0.00 0.00 25 1023.4
20260502170517 17 315 6.4 11.3 0.00 0.00 0.00 30 1023.0
20260502164017 16 315 3.2 8.0 0.00 0.00 0.00 31 1023.1
20260502163516 16 0 3.2 9.7 0.00 0.00 0.00 32 1023.1
20260502163017 16 293 3.2 6.4 0.00 0.00 0.00 31 1023.0
20260502162537 16 293 4.8 8.0 0.00 0.00 0.00 31 1023.0
20260502162017 16 315 4.8 8.0 0.00 0.00 0.00 32 1022.7
20260502161517 15 315 1.6 8.0 0.00 0.00 0.00 34 1022.7
20260502161037 15 315 4.8 8.0 0.00 0.00 0.00 34 1022.7
20260502160517 15 315 4.8 8.0 0.00 0.00 0.00 34 1022.7
20260502152017 16 0.0 3.2 0.00 0.00 0.00 31 1023.2
20260502151517 15 0.0 1.6 0.00 0.00 0.00 32 1023.3
20260502151016 16 0 1.6 3.2 0.00 0.00 0.00 32 1023.3
20260502150516 16 0.0 3.2 0.00 0.00 0.00 29 1023.3
20260502130556 10 90 3.2 4.8 0.00 0.00 0.00 35 1022.6
20260502123516 10 90 4.8 8.0 0.00 0.00 0.00 34 1022.8
20260502123036 10 113 3.2 6.4 0.00 0.00 0.00 34 1022.8
20260502122516 10 0.0 0.0 0.00 0.00 0.00 33 1022.8
20260502122016 10 0.0 0.0 0.00 0.00 0.00 33 1023.1
20260502121516 11 0.0 3.2 0.00 0.00 0.00 32 1023.2
20260502121036 11 113 4.8 6.4 0.00 0.00 0.00 32 1023.2
20260502120516 11 113 8.0 11.3 0.00 0.00 0.00 31 1023.2
20260502115516 10 113 12.9 14.5 0.00 0.00 0.00 32 1022.9
20260502115016 10 90 8.0 11.3 0.00 0.00 0.00 33 1022.9
20260502114516 10 90 4.8 9.7 0.00 0.00 0.00 34 1022.9
20260502114016 10 113 8.0 11.3 0.00 0.00 0.00 35 1022.9
20260502113516 9 113 8.0 12.9 0.00 0.00 0.00 34 1022.5
20260502113016 9 113 4.8 11.3 0.00 0.00 0.00 36 1022.5
20260502112516 9 0.0 3.2 0.00 0.00 0.00 37 1022.6
20260502112037 10 0.0 0.0 0.00 0.00 0.00 36 1023.0
20260502111516 10 113 3.2 6.4 0.00 0.00 0.00 36 1023.0
20260502111016 10 113 4.8 6.4 0.00 0.00 0.00 36 1023.0
20260502110516 9 113 6.4 11.3 0.00 0.00 0.00 36 1022.7
20260502110016 9 113 8.0 14.5 0.00 0.00 0.00 37 1022.7
20260502105516 8 90 3.2 8.0 0.00 0.00 0.00 38 1022.7
20260502105036 9 0.0 0.0 0.00 0.00 0.00 39 1022.7
20260502104516 9 90 3.2 4.8 0.00 0.00 0.00 40 1022.8
20260502104016 9 90 3.2 8.0 0.00 0.00 0.00 39 1022.8
20260502103516 9 23 1.6 3.2 0.00 0.00 0.00 39 1022.8
20260502103016 9 23 3.2 4.8 0.00 0.00 0.00 39 1022.7
20260502102516 9 0 3.2 4.8 0.00 0.00 0.00 38 1022.7
20260502102016 9 113 1.6 4.8 0.00 0.00 0.00 39 1022.6
20260502101516 10 113 3.2 4.8 0.00 0.00 0.00 39 1022.9
20260502101016 10 113 3.2 4.8 0.00 0.00 0.00 39 1022.9
20260502100536 10 135 4.8 8.0 0.00 0.00 0.00 37 1022.7
20260502091516 11 113 1.6 4.8 0.00 0.00 0.00 36 1022.7
20260502091036 11 113 6.4 11.3 0.00 0.00 0.00 36 1022.7
20260502090516 11 90 11.3 12.9 0.00 0.00 0.00 37 1022.7
20260502071516 12 113 12.9 16.1 0.00 0.00 0.00 29 1023.0
20260502071016 12 113 12.9 17.7 0.00 0.00 0.00 28 1023.1
20260502070536 12 113 12.9 22.5 0.00 0.00 0.00 28 1023.1
20260502070016 12 113 11.3 22.5 0.00 0.00 0.00 28 1023.1
20260502065516 12 113 14.5 19.3 0.00 0.00 0.00 28 1023.0
20260502065015 12 90 8.0 14.5 0.00 0.00 0.00 29 1022.8
20260502064516 11 113 8.0 14.5 0.00 0.00 0.00 30 1022.7
20260502064016 11 0.0 4.8 0.00 0.00 0.00 31 1022.7
20260502063515 11 293 3.2 6.4 0.00 0.00 0.00 34 1022.7
20260502063015 11 113 1.6 6.4 0.00 0.00 0.00 36 1022.8
20260502062536 11 113 3.2 6.4 0.00 0.00 0.00 36 1022.9
20260502062016 11 113 3.2 8.0 0.00 0.00 0.00 35 1022.6
20260502061536 11 90 1.6 4.8 0.00 0.00 0.00 35 1022.6
20260502061015 11 90 3.2 8.0 0.00 0.00 0.00 35 1022.6
20260502060515 11 113 1.6 8.0 0.00 0.00 0.00 34 1022.6
20260502060015 11 135 1.6 6.4 0.00 0.00 0.00 33 1022.7
20260502055517 11 158 4.8 14.5 0.00 0.00 0.00 31 1022.5
20260502055017 12 113 9.7 19.3 0.00 0.00 0.00 33 1022.5
20260502054517 12 113 12.9 17.7 0.00 0.00 0.00 31 1022.5
20260502054037 12 113 9.7 14.5 0.00 0.00 0.00 33 1022.6
20260502053537 11 113 16.1 19.3 0.00 0.00 0.00 33 1022.3
20260502053057 11 113 14.5 17.7 0.00 0.00 0.00 35 1022.3
20260502052517 11 113 12.9 19.3 0.00 0.00 0.00 38 1022.4
20260502052017 11 113 11.3 14.5 0.00 0.00 0.00 40 1022.0
20260502051537 10 113 8.0 14.5 0.00 0.00 0.00 42 1022.0
20260502051016 10 90 4.8 12.9 0.00 0.00 0.00 44 1022.0
20260502050517 10 90 8.0 11.3 0.00 0.00 0.00 45 1022.0
20260502050017 11 45 6.4 11.3 0.00 0.00 0.00 45 1022.0
20260502045517 11 68 9.7 14.5 0.00 0.00 0.00 45 1022.0
20260502045017 11 45 8.0 12.9 0.00 0.00 0.00 43 1021.7
20260502044537 11 113 4.8 11.3 0.00 0.00 0.00 40 1021.7
20260502044017 11 135 8.0 11.3 0.00 0.00 0.00 40 1021.6
20260502043517 11 90 6.4 11.3 0.00 0.00 0.00 42 1021.6
20260502043017 11 113 6.4 9.7 0.00 0.00 0.00 41 1021.6
20260502042516 11 135 4.8 8.0 0.00 0.00 0.00 42 1022.0
20260502042016 11 113 6.4 8.0 0.00 0.00 0.00 42 1021.9
20260502041516 11 113 8.0 11.3 0.00 0.00 0.00 42 1022.0
20260502041037 11 113 8.0 12.9 0.00 0.00 0.00 43 1021.9
20260502040516 11 113 11.3 14.5 0.00 0.00 0.00 42 1021.5
20260502040017 11 113 6.4 12.9 0.00 0.00 0.00 42 1021.5
20260502035516 11 135 6.4 11.3 0.00 0.00 0.00 43 1021.4
20260502035016 11 135 1.6 8.0 0.00 0.00 0.00 44 1020.9
20260502034516 11 45 3.2 8.0 0.00 0.00 0.00 42 1021.3
20260502034036 11 68 8.0 12.9 0.00 0.00 0.00 43 1021.2
20260502033517 12 68 9.7 12.9 0.00 0.00 0.00 43 1021.1
20260502033017 12 90 8.0 11.3 0.00 0.00 0.00 44 1021.0
20260502032517 12 90 9.7 12.9 0.00 0.00 0.00 44 1020.9
20260502032017 12 113 11.3 14.5 0.00 0.00 0.00 44 1020.5
20260502031516 12 113 12.9 16.1 0.00 0.00 0.00 44 1020.5
20260502031017 12 113 12.9 16.1 0.00 0.00 0.00 45 1020.4
20260502030516 12 113 12.9 16.1 0.00 0.00 0.00 45 1020.3
20260502030016 12 90 14.5 16.1 0.00 0.00 0.00 45 1020.3
20260502025517 12 113 12.9 16.1 0.00 0.00 0.00 44 1020.2
20260502025016 12 113 12.9 14.5 0.00 0.00 0.00 44 1019.7
20260502024536 12 113 12.9 16.1 0.00 0.00 0.00 44 1019.7
20260502024017 12 113 9.7 14.5 0.00 0.00 0.00 42 1019.7
20260502023516 13 90 6.4 9.7 0.00 0.00 0.00 41 1020.0
20260502023017 13 68 8.0 11.3 0.00 0.00 0.00 40 1020.0
20260502022516 14 68 8.0 11.3 0.00 0.00 0.00 38 1020.3
20260502022017 15 23 6.4 9.7 0.00 0.00 0.00 37 1020.0
20260502021516 15 338 6.4 8.0 0.00 0.00 0.00 38 1019.9
20260502021017 15 338 6.4 9.7 0.00 0.00 0.00 38 1019.9
20260502020517 15 0 6.4 9.7 0.00 0.00 0.00 38 1019.9
20260502020016 15 338 9.7 12.9 0.00 0.00 0.00 37 1019.9
20260502015517 16 315 6.4 12.9 0.00 0.00 0.00 36 1019.8
20260502015036 16 315 8.0 12.9 0.00 0.00 0.00 36 1020.1
20260502014516 16 338 9.7 12.9 0.00 0.00 0.00 36 1020.0
20260502014016 16 338 9.7 12.9 0.00 0.00 0.00 35 1020.4
20260502013536 16 338 11.3 16.1 0.00 0.00 0.00 34 1020.4
20260502013017 16 0 9.7 14.5 0.00 0.00 0.00 34 1020.3
20260502012536 16 338 11.3 17.7 0.00 0.00 0.00 34 1020.3
20260502012016 16 315 11.3 16.1 0.00 0.00 0.00 33 1020.0
20260502011637 16 338 12.9 17.7 0.00 0.00 0.00 33 1020.0
20260502011016 17 315 11.3 17.7 0.00 0.00 0.00 32 1020.3
20260502010516 17 315 9.7 14.5 0.00 0.00 0.00 33 1020.3
20260502010016 17 315 9.7 16.1 0.00 0.00 0.00 34 1020.3
20260502005516 17 293 9.7 16.1 0.00 0.00 0.00 32 1020.3
20260502005016 17 315 9.7 16.1 0.00 0.00 0.00 33 1020.3
20260502004536 17 315 12.9 20.9 0.00 0.00 0.00 33 1020.4
20260502004016 17 315 11.3 20.9 0.00 0.00 0.00 33 1020.3
20260502003536 17 315 11.3 20.9 0.00 0.00 0.00 31 1020.3
20260502003016 17 315 12.9 22.5 0.00 0.00 0.00 32 1020.4
20260502002516 17 315 11.3 17.7 0.00 0.00 0.00 32 1020.4
20260502002036 17 315 14.5 22.5 0.00 0.00 0.00 33 1020.9
20260502001516 17 315 14.5 24.1 0.00 0.00 0.00 33 1020.9
20260502001036 17 315 14.5 22.5 0.00 0.00 0.00 33 1021.0
20260502000516 17 315 12.9 19.3 0.00 0.00 0.00 33 1021.0
20260502000016 18 338 16.1 20.9 0.00 0.00 0.00 31 1021.0
20260501235516 18 338 12.9 20.9 0.00 0.00 0.00 32 1021.0
20260501235016 17 338 16.1 22.5 0.00 0.00 0.00 33 1021.1
20260501234516 17 315 14.5 20.9 0.00 0.00 0.00 32 1021.1
20260501234016 17 338 14.5 22.5 0.00 0.00 0.00 32 1021.1
20260501233516 17 338 12.9 19.3 0.00 0.00 0.00 32 1021.1
20260501233016 17 315 12.9 25.7 0.00 0.00 0.00 32 1021.1
20260501232516 17 338 19.3 24.1 0.00 0.00 0.00 32 1021.1
20260501232016 17 315 14.5 20.9 0.00 0.00 0.00 31 1021.1
20260501231516 17 315 12.9 20.9 0.00 0.00 0.00 30 1021.1
20260501231016 17 338 17.7 27.4 0.00 0.00 0.00 32 1021.1
20260501230516 17 338 19.3 25.7 0.00 0.00 0.00 33 1021.2
20260501230016 17 315 20.9 29.0 0.00 0.00 0.00 33 1021.2
20260501225536 17 315 19.3 25.7 0.00 0.00 0.00 34 1021.3
20260501225036 17 315 16.1 25.7 0.00 0.00 0.00 33 1020.9
20260501224516 17 338 17.7 27.4 0.00 0.00 0.00 34 1021.0
20260501224016 17 338 19.3 29.0 0.00 0.00 0.00 34 1021.0
20260501223516 17 315 19.3 29.0 0.00 0.00 0.00 32 1021.0
20260501223016 17 315 17.7 29.0 0.00 0.00 0.00 33 1021.0
20260501222516 17 338 17.7 29.0 0.00 0.00 0.00 31 1021.1
20260501222016 17 338 17.7 27.4 0.00 0.00 0.00 33 1021.5
20260501221516 17 315 19.3 30.6 0.00 0.00 0.00 33 1021.5
20260501221016 17 315 19.3 29.0 0.00 0.00 0.00 32 1021.6
20260501220516 17 338 17.7 25.7 0.00 0.00 0.00 33 1021.7
20260501220016 17 315 17.7 25.7 0.00 0.00 0.00 33 1021.7
20260501215536 17 338 20.9 27.4 0.00 0.00 0.00 33 1021.8
20260501215036 17 338 17.7 27.4 0.00 0.00 0.00 32 1021.8
20260501214516 17 315 16.1 29.0 0.00 0.00 0.00 32 1021.9
20260501214016 17 338 17.7 25.7 0.00 0.00 0.00 31 1021.9
20260501213516 17 338 17.7 24.1 0.00 0.00 0.00 31 1021.9
20260501213016 17 315 17.7 24.1 0.00 0.00 0.00 30 1022.0
20260501212516 17 338 16.1 24.1 0.00 0.00 0.00 32 1022.0
20260501212016 17 0 19.3 32.2 0.00 0.00 0.00 31 1022.0
20260501211516 17 338 20.9 30.6 0.00 0.00 0.00 32 1022.0
20260501211016 17 315 20.9 30.6 0.00 0.00 0.00 32 1022.0
20260501210516 17 315 17.7 29.0 0.00 0.00 0.00 30 1022.1
20260501210016 17 315 16.1 24.1 0.00 0.00 0.00 30 1022.0
20260501205516 17 315 14.5 25.7 0.00 0.00 0.00 30 1022.0
20260501205016 17 315 22.5 33.8 0.00 0.00 0.00 30 1022.0
20260501204516 17 315 16.1 29.0 0.00 0.00 0.00 28 1021.9
20260501204016 17 315 17.7 25.7 0.00 0.00 0.00 26 1021.9
20260501203536 17 315 16.1 27.4 0.00 0.00 0.00 28 1021.9
20260501203016 17 315 12.9 22.5 0.00 0.00 0.00 28 1021.9
20260501202516 17 315 14.5 19.3 0.00 0.00 0.00 30 1022.0
20260501202016 17 315 16.1 24.1 0.00 0.00 0.00 29 1022.3
20260501201516 17 315 14.5 22.5 0.00 0.00 0.00 29 1022.0
20260501201036 17 315 12.9 29.0 0.00 0.00 0.00 28 1021.9
20260501200515 17 315 17.7 27.4 0.00 0.00 0.00 31 1022.4
20260501200016 17 315 17.7 24.1 0.00 0.00 0.00 30 1022.1
20260501195515 17 338 19.3 29.0 0.00 0.00 0.00 29 1022.0
20260501195015 16 338 17.7 27.4 0.00 0.00 0.00 29 1022.0
20260501194556 17 338 17.7 27.4 0.00 0.00 0.00 29 1022.1
20260501194016 17 0 16.1 29.0 0.00 0.00 0.00 29 1022.6
20260501193516 17 0 19.3 29.0 0.00 0.00 0.00 29 1022.6
20260501193035 17 338 17.7 32.2 0.00 0.00 0.00 28 1022.5
20260501192516 17 338 20.9 32.2 0.00 0.00 0.00 28 1022.6
20260501192015 17 0 20.9 32.2 0.00 0.00 0.00 26 1023.0
20260501191516 17 0 17.7 27.4 0.00 0.00 0.00 28 1023.1
20260501191035 17 338 12.9 20.9 0.00 0.00 0.00 28 1022.8
20260501190515 17 293 8.0 20.9 0.00 0.00 0.00 25 1022.9
20260501190016 17 338 12.9 46.7 0.00 0.00 0.00 29 1023.1
20260501185516 17 315 11.3 17.7 0.00 0.00 0.00 25 1023.0
20260501185015 17 315 8.0 16.1 0.00 0.00 0.00 27 1022.7
20260501184515 16 0 4.8 11.3 0.00 0.00 0.00 24 1022.8
20260501184015 16 68 11.3 19.3 0.00 0.00 0.00 27 1023.0
20260501183535 16 113 9.7 20.9 0.00 0.00 0.00 26 1023.0